D-STAR ONE SPARROW (43881 NORAD) Tracking and Keplerian Element Data

This shows tracking and keplerian element data for the satellite.

Feedback or suggestion? Click here.




ElementValue
Catalog43881
NameD-STAR ONE SPARROW
Epoch Orbit100
Epoch Day16.21007276
Epoch Year2019
RAAN286.3755
Inclination97.7275
Eccentricity0.0012623
Argument of Perigee170.9961
Mean Anonmoly189.1489
Mean Motion14.96154446
Decay Rate2.78E-06
L11 43881U 18111F 19016.21007276 .00000278 00000-0 29768-4 0 9991
L22 43881 97.7275 286.3755 0012623 170.9961 189.1489 14.96154446 1001

Live tracking and technical data element details for D-STAR ONE SPARROW (NORAD 43881). D-STAR ONE SPARROW can be tracked NOW for your location showing map with azimuth and elevation plus other details from your city location.

Track the satellite on the map from your city or location and see movement details for azimuth, elevation, latitude, longitude, range, height, and movement on the map or in text.







IsCatalogInMostPopularTable: catalog: 43881, numindb: 17
Update: records affected: 1



GetName: 43881 D-STAR ONE SPARROW

Hit Count: updated at: Thu, 17 Jan 2019 14:38:16 GMT